This is the latest recevied weather packets stored in our database for station/object KN6DHD. If no packets are shown the sender has not sent any weather packets the latest 10 day(s).
| Time | Temp. | Humidity | Pressure | Rain* | Wind** | Luminosity | Snow |
|---|---|---|---|---|---|---|---|
| 1777756586 | 22.22° C | 61% | 1012.6 hPa | 0 mm | - | 646 W/m² | - |
| 1777756283 | 21.67° C | 61% | 1012.4 hPa | 0 mm | - | 631 W/m² | - |
| 1777755981 | 21.11° C | 64% | 1012.6 hPa | 0 mm | - | 557 W/m² | - |
| 1777755673 | 21.11° C | 65% | 1012.8 hPa | 0 mm | - | 477 W/m² | - |
| 1777755369 | 21.67° C | 64% | 1012.7 hPa | 0 mm | - | 484 W/m² | - |
| 1777755066 | 21.67° C | 65% | 1012.8 hPa | 0 mm | - | 599 W/m² | - |
| 1777754762 | 21.11° C | 64% | 1012.8 hPa | 0 mm | - | 579 W/m² | - |
| 1777754460 | 21.67° C | 63% | 1013 hPa | 0 mm | - | 562 W/m² | - |
| 1777754157 | 21.67° C | 64% | 1012.8 hPa | 0 mm | - | 584 W/m² | - |
| 1777753854 | 21.11° C | 64% | 1012.9 hPa | 0 mm | - | 596 W/m² | - |
| 1777753550 | 21.11° C | 65% | 1012.9 hPa | 0 mm | - | 497 W/m² | - |
| 1777753248 | 20.56° C | 68% | 1013.1 hPa | 0 mm | - | 615 W/m² | - |
| 1777752944 | 20.56° C | 68% | 1013.1 hPa | 0 mm | - | 602 W/m² | - |
| 1777752641 | 20.56° C | 68% | 1013.3 hPa | 0 mm | - | 620 W/m² | - |
| 1777752337 | 20.56° C | 67% | 1013.3 hPa | 0 mm | - | 629 W/m² | - |
| 1777752035 | 20° C | 68% | 1013.1 hPa | 0 mm | - | 474 W/m² | - |
| 1777751732 | 20° C | 70% | 1013.2 hPa | 0 mm | - | 575 W/m² | - |
| 1777751428 | 20° C | 71% | 1013.3 hPa | 0 mm | - | 614 W/m² | - |
| 1777751125 | 18.89° C | 73% | 1013.4 hPa | 0 mm | - | 660 W/m² | - |
| 1777750821 | 18.89° C | 74% | 1013.2 hPa | 0 mm | - | 557 W/m² | - |
| 1777750519 | 18.33° C | 74% | 1013.5 hPa | 0 mm | - | 209 W/m² | - |
| 1777750215 | 18.89° C | 73% | 1013.5 hPa | 0 mm | - | 251 W/m² | - |
| 1777749910 | 18.89° C | 72% | 1013.5 hPa | 0 mm | - | 482 W/m² | - |
| 1777749609 | 18.89° C | 73% | 1013.6 hPa | 0 mm | - | 537 W/m² | - |
| 1777749305 | 18.33° C | 73% | 1013.6 hPa | 0 mm | - | 669 W/m² | - |
* Rain latest hour (hover to see other rain measurements)
** Current wind speed in m/s (hover to see current wind gust speed)